Location: Prairie State College
(41.5244°N, 87.6382°W)
Time: 16:01:17
(UTC-05:00)

ARGOS Delta rocket - Visible Passes

Search period start: 01 September 2014 00:00
Search period end: 11 September 2014 00:00
Orbit: 638 x 840 km, 96.5° (Epoch: 01 September)

Date Brightness Start Highest point End Pass type
(mag) Time Alt. Az. Time Alt. Az. Time Alt. Az.
01 Sep 6.7 00:47:17 12° NE 00:47:17 12° NE 00:48:26 10° NNE visible
01 Sep 5.9 02:26:57 25° NNW 02:26:57 25° NNW 02:29:09 10° NNW visible
02 Sep 6.2 01:42:10 24° NNE 01:42:10 24° NNE 01:44:29 10° N visible
02 Sep 6.3 03:21:50 14° NW 03:21:50 14° NW 03:22:40 10° NW visible
03 Sep 6.7 00:57:24 15° NE 00:57:24 15° NE 00:58:56 10° NNE visible
03 Sep 6.0 02:37:03 22° NNW 02:37:03 22° NNW 02:38:56 10° NNW visible
04 Sep 6.2 01:52:17 24° N 01:52:17 24° N 01:54:26 10° N visible
04 Sep 6.5 03:31:57 11° NW 03:31:57 11° NW 03:32:05 10° NW visible
05 Sep 6.6 01:07:31 17° NNE 01:07:31 17° NNE 01:09:12 10° NNE visible
05 Sep 6.2 02:47:11 19° NNW 02:47:11 19° NNW 02:48:40 10° NNW visible
06 Sep 6.2 02:02:25 22° N 02:02:25 22° N 02:04:21 10° N visible
07 Sep 6.6 01:17:39 18° NNE 01:17:39 18° NNE 01:19:20 10° NNE visible
07 Sep 6.4 02:57:19 15° NNW 02:57:19 15° NNW 02:58:21 10° NNW visible
08 Sep 6.3 02:12:34 20° N 02:12:34 20° N 02:14:12 10° N visible
09 Sep 6.6 01:27:48 18° NNE 01:27:48 18° NNE 01:29:23 10° N visible
09 Sep 6.6 03:07:28 12° NNW 03:07:28 12° NNW 03:07:57 10° NNW visible
10 Sep 6.9 00:43:03 11° NNE 00:43:03 11° NNE 00:43:34 10° NNE visible
10 Sep 6.4 02:22:43 18° NNW 02:22:43 18° NNW 02:24:00 10° NNW visible
